CW6099 Weather Reports


time (UTC)temp
C
wind
direction
speed
KPH
gust
KPH
rain 1hr
cm
rain 24hr
cm
rain mn
cm
humidity
%
barometer
mb
20260906204706 33 160 27.4 43.5 0.00 0.00 0.00 46 1014.5
20260906204241 33 169 30.6 43.5 0.00 0.00 0.00 46 1014.6
20260906204133 33 163 29.0 46.7 0.00 0.00 0.00 46 1014.5
20260906203643 33 205 24.1 46.7 0.00 0.00 0.00 45 1014.7
20260906203238 33 167 30.6 49.9 0.00 0.00 0.00 45 1014.7
20260906203149 33 157 32.2 48.3 0.00 0.00 0.00 45 1014.8
20260906202658 33 157 27.4 48.3 0.00 0.00 0.00 46 1014.9
20260906202234 33 167 29.0 46.7 0.00 0.00 0.00 47 1015.0
20260906202146 33 134 27.4 46.7 0.00 0.00 0.00 47 1015.0
20260906201638 33 158 27.4 41.8 0.00 0.00 0.00 46 1015.0
20260906201308 33 184 32.2 48.3 0.00 0.00 0.00 45 1015.1
20260906201143 33 178 33.8 41.8 0.00 0.00 0.00 45 1015.1
20260906200713 33 144 25.7 40.2 0.00 0.00 0.00 46 1015.1
20260906200248 33 141 24.1 40.2 0.00 0.00 0.00 45 1015.2
20260906200141 33 144 27.4 51.5 0.00 0.00 0.00 46 1015.2
20260906195649 33 145 24.1 51.5 0.00 0.00 0.00 48 1015.2
20260906195306 33 134 30.6 43.5 0.00 0.00 0.00 48 1015.3
20260906195136 33 190 29.0 43.5 0.00 0.00 0.00 47 1015.3
20260906194646 33 146 24.1 46.7 0.00 0.00 0.00 48 1015.3
20260906194242 33 171 27.4 46.7 0.00 0.00 0.00 48 1015.4
20260906194134 33 143 24.1 49.9 0.00 0.00 0.00 48 1015.4
20260906193644 33 150 30.6 43.5 0.00 0.00 0.00 48 1015.4
20260906193241 33 157 27.4 45.1 0.00 0.00 0.00 47 1015.5
20260906193134 33 156 29.0 46.7 0.00 0.00 0.00 48 1015.6
20260906192643 33 179 25.7 46.7 0.00 0.00 0.00 47 1015.7
20260906192239 33 147 25.7 45.1 0.00 0.00 0.00 48 1015.7
20260906192136 33 126 29.0 49.9 0.00 0.00 0.00 47 1015.7
20260906191646 32 165 27.4 46.7 0.00 0.00 0.00 49 1015.7
20260906191242 32 101 33.8 54.7 0.00 0.00 0.00 49 1015.6
20260906191135 32 159 33.8 49.9 0.00 0.00 0.00 49 1015.8
20260906190703 32 146 29.0 41.8 0.00 0.00 0.00 48 1016.0
20260906190239 32 139 24.1 45.1 0.00 0.00 0.00 47 1016.0
20260906190152 32 138 27.4 45.1 0.00 0.00 0.00 47 1016.0
20260906185641 32 156 20.9 41.8 0.00 0.00 0.00 50 1016.0
20260906185238 32 192 25.7 41.8 0.00 0.00 0.00 48 1016.1
20260906185151 32 186 27.4 41.8 0.00 0.00 0.00 49 1016.1
20260906184700 32 155 24.1 40.2 0.00 0.00 0.00 51 1016.1
20260906184236 32 174 22.5 41.8 0.00 0.00 0.00 52 1016.2
20260906184209 32 165 20.9 41.8 0.00 0.00 0.00 50 1016.1
20260906183658 31 155 22.5 41.8 0.00 0.00 0.00 51 1016.3
20260906183254 31 111 27.4 45.1 0.00 0.00 0.00 52 1016.4
20260906183147 31 146 29.0 45.1 0.00 0.00 0.00 52 1016.3
20260906182636 31 141 25.7 41.8 0.00 0.00 0.00 53 1016.4
20260906182253 31 140 24.1 41.8 0.00 0.00 0.00 54 1016.4
20260906182148 31 131 25.7 41.8 0.00 0.00 0.00 53 1016.4
20260906181638 31 139 27.4 43.5 0.00 0.00 0.00 53 1016.5
20260906181233 31 154 24.1 43.5 0.00 0.00 0.00 55 1016.7
20260906181147 31 175 24.1 43.5 0.00 0.00 0.00 54 1016.7
20260906180636 31 169 17.7 45.1 0.00 0.00 0.00 57 1016.8
20260906180247 31 148 27.4 45.1 0.00 0.00 0.00 57 1016.9
20260906180139 31 166 30.6 45.1 0.00 0.00 0.00 56 1016.9
20260906175650 30 126 25.7 45.1 0.00 0.00 0.00 56 1016.9
20260906175246 30 133 24.1 41.8 0.00 0.00 0.00 58 1017.0
20260906175139 30 157 24.1 38.6 0.00 0.00 0.00 57 1017.1
20260906174649 30 137 22.5 48.3 0.00 0.00 0.00 59 1017.2
20260906174246 30 148 25.7 48.3 0.00 0.00 0.00 58 1017.3
20260906174138 30 153 24.1 48.3 0.00 0.00 0.00 58 1017.3
20260906173648 29 144 25.7 38.6 0.00 0.00 0.00 61 1017.4
20260906173245 29 142 19.3 37.0 0.00 0.00 0.00 60 1017.4
20260906173143 29 146 19.3 46.7 0.00 0.00 0.00 61 1017.4
20260906172652 29 123 25.7 46.7 0.00 0.00 0.00 61 1017.4
20260906172248 29 164 25.7 41.8 0.00 0.00 0.00 61 1017.4
20260906172141 29 142 24.1 41.8 0.00 0.00 0.00 61 1017.4
20260906171650 28 169 30.6 46.7 0.00 0.00 0.00 63 1017.6
20260906171247 28 159 25.7 38.6 0.00 0.00 0.00 66 1017.6
20260906171140 27 134 24.1 35.4 0.00 0.00 0.00 66 1017.6
20260906170650 27 171 22.5 40.2 0.00 0.00 0.00 64 1017.6
20260906170246 27 168 24.1 40.2 0.00 0.00 0.00 64 1017.6
20260906170157 27 171 25.7 40.2 0.00 0.00 0.00 64 1017.6
20260906165645 27 153 25.7 40.2 0.00 0.00 0.00 64 1017.7
20260906165242 27 131 22.5 45.1 0.00 0.00 0.00 64 1017.7
20260906165135 27 173 22.5 45.1 0.00 0.00 0.00 65 1017.6
20260906164648 27 195 29.0 45.1 0.00 0.00 0.00 64 1017.6
20260906164238 27 151 25.7 40.2 0.00 0.00 0.00 66 1017.6
20260906164135 27 157 27.4 40.2 0.00 0.00 0.00 65 1017.6
20260906163645 27 126 25.7 41.8 0.00 0.00 0.00 65 1017.7
20260906163242 26 142 27.4 41.8 0.00 0.00 0.00 65 1017.7
20260906163135 26 171 30.6 41.8 0.00 0.00 0.00 65 1017.8
20260906162645 26 128 24.1 45.1 0.00 0.00 0.00 66 1017.8
20260906162243 26 150 25.7 43.5 0.00 0.00 0.00 66 1017.7
20260906162136 26 165 22.5 43.5 0.00 0.00 0.00 66 1017.8
20260906161646 26 140 30.6 43.5 0.00 0.00 0.00 67 1017.7
20260906161301 27 146 30.6 43.5 0.00 0.00 0.00 66 1017.8
20260906161153 27 133 30.6 43.5 0.00 0.00 0.00 65 1017.7
20260906160642 27 153 32.2 43.5 0.00 0.00 0.00 64 1017.7
20260906160239 27 150 24.1 43.5 0.00 0.00 0.00 64 1017.7
20260906160136 27 152 25.7 43.5 0.00 0.00 0.00 63 1017.7
20260906155706 28 167 30.6 43.5 0.00 0.00 0.00 63 1017.7
20260906155237 28 158 29.0 43.5 0.00 0.00 0.00 62 1017.7
20260906155152 28 135 29.0 43.5 0.00 0.00 0.00 62 1017.7
20260906154641 27 141 27.4 38.6 0.00 0.00 0.00 64 1017.7
20260906154239 27 157 20.9 38.6 0.00 0.00 0.00 64 1017.6
20260906154151 27 155 19.3 38.6 0.00 0.00 0.00 64 1017.6
20260906153641 27 163 25.7 35.4 0.00 0.00 0.00 63 1017.6
20260906153237 27 149 17.7 33.8 0.00 0.00 0.00 64 1017.6
20260906153151 27 155 19.3 33.8 0.00 0.00 0.00 64 1017.5
20260906152639 27 149 22.5 33.8 0.00 0.00 0.00 66 1017.5
20260906152236 26 141 11.3 32.2 0.00 0.00 0.00 67 1017.6
20260906152149 26 138 14.5 32.2 0.00 0.00 0.00 67 1017.6
20260906151639 26 174 14.5 29.0 0.00 0.00 0.00 70 1017.5
20260906151236 26 283 17.7 29.0 0.00 0.00 0.00 69 1017.6
20260906151149 26 149 17.7 29.0 0.00 0.00 0.00 70 1017.5
20260906150640 25 186 11.3 24.1 0.00 0.00 0.00 73 1017.6
20260906150251 25 150 12.9 32.2 0.00 0.00 0.00 73 1017.6
20260906150147 25 79 12.9 32.2 0.00 0.00 0.00 74 1017.6
20260906145638 25 144 14.5 35.4 0.00 0.00 0.00 73 1017.6
20260906145234 25 148 17.7 35.4 0.00 0.00 0.00 74 1017.7
20260906145147 25 108 12.9 29.0 0.00 0.00 0.00 75 1017.7
20260906144638 24 167 11.3 27.4 0.00 0.00 0.00 76 1017.6
20260906144234 24 319 11.3 27.4 0.00 0.00 0.00 78 1017.6
20260906144147 24 65 11.3 24.1 0.00 0.00 0.00 78 1017.6
20260906143658 23 117 12.9 29.0 0.00 0.00 0.00 78 1017.5
20260906143314 23 312 11.3 29.0 0.00 0.00 0.00 78 1017.4
20260906143146 23 186 12.9 29.0 0.00 0.00 0.00 78 1017.4
20260906142635 23 218 12.9 25.7 0.00 0.00 0.00 78 1017.4
20260906142251 23 218 14.5 30.6 0.00 0.00 0.00 78 1017.3
20260906142204 23 56 14.5 30.6 0.00 0.00 0.00 78 1017.3
20260906141713 23 146 14.5 30.6 0.00 0.00 0.00 77 1017.3
20260906141248 23 167 14.5 30.6 0.00 0.00 0.00 78 1017.2
20260906141140 23 94 14.5 30.6 0.00 0.00 0.00 79 1017.3
20260906140651 23 128 14.5 24.1 0.00 0.00 0.00 79 1017.4
20260906140247 23 271 12.9 27.4 0.00 0.00 0.00 80 1017.4
20260906140144 22 159 14.5 25.7 0.00 0.00 0.00 79 1017.5
20260906135713 22 144 14.5 30.6 0.00 0.00 0.00 80 1017.4
20260906135244 22 65 14.5 30.6 0.00 0.00 0.00 81 1017.4
20260906135139 22 299 14.5 19.3 0.00 0.00 0.00 81 1017.4
20260906134649 22 127 12.9 19.3 0.00 0.00 0.00 82 1017.4
20260906134306 22 116 11.3 24.1 0.00 0.00 0.00 83 1017.4
20260906134157 22 69 11.3 24.1 0.00 0.00 0.00 83 1017.4
20260906133645 22 269 12.9 24.1 0.00 0.00 0.00 83 1017.4
20260906133302 22 200 12.9 22.5 0.00 0.00 0.00 84 1017.4
20260906133134 22 93 12.9 22.5 0.00 0.00 0.00 84 1017.4
20260906132644 21 94 11.3 17.7 0.00 0.00 0.00 84 1017.4
20260906132239 21 312 8.0 20.9 0.00 0.00 0.00 85 1017.4
20260906132152 21 156 8.0 20.9 0.00 0.00 0.00 85 1017.4
20260906131642 21 107 12.9 24.1 0.00 0.00 0.00 85 1017.5
20260906131259 21 88 14.5 24.1 0.00 0.00 0.00 85 1017.4
20260906131151 21 92 16.1 24.1 0.00 0.00 0.00 85 1017.5
20260906130640 21 67 16.1 20.9 0.00 0.00 0.00 86 1017.5
20260906130237 21 71 12.9 17.7 0.00 0.00 0.00 88 1017.4
20260906130150 20 87 11.3 17.7 0.00 0.00 0.00 88 1017.4
20260906125643 20 81 11.3 16.1 0.00 0.00 0.00 89 1017.3
20260906125240 20 54 12.9 16.1 0.00 0.00 0.00 89 1017.4
20260906125153 20 53 11.3 16.1 0.00 0.00 0.00 89 1017.4
20260906124702 20 30 6.4 16.1 0.00 0.00 0.00 88 1017.4
20260906124236 20 46 11.3 14.5 0.00 0.00 0.00 88 1017.3
20260906124207 20 66 11.3 14.5 0.00 0.00 0.00 88 1017.3
20260906123636 20 63 8.0 9.7 0.00 0.00 0.00 88 1017.1
20260906123252 20 60 6.4 9.7 0.00 0.00 0.00 88 1017.0
20260906123145 20 60 6.4 9.7 0.00 0.00 0.00 88 1017.0
20260906122634 20 61 8.0 9.7 0.00 0.00 0.00 88 1017.0
20260906122250 20 61 6.4 8.0 0.00 0.00 0.00 88 1017.0
20260906122143 20 57 6.4 8.0 0.00 0.00 0.00 88 1017.0
20260906121653 20 61 4.8 6.4 0.00 0.00 0.00 87 1017.0
20260906121250 20 50 3.2 6.4 0.00 0.00 0.00 87 1016.9
20260906121142 20 36 3.2 4.8 0.00 0.00 0.00 87 1016.9
20260906120636 20 43 3.2 8.0 0.00 0.00 0.00 86 1017.0
20260906120248 21 33 3.2 9.7 0.00 0.00 0.00 86 1017.1
20260906120144 21 30 4.8 9.7 0.00 0.00 0.00 86 1017.0
20260906115714 21 56 8.0 9.7 0.00 0.00 0.00 86 1016.8
20260906115246 21 46 6.4 9.7 0.00 0.00 0.00 86 1016.8
20260906115142 21 44 6.4 9.7 0.00 0.00 0.00 85 1016.8
20260906114652 21 48 4.8 8.0 0.00 0.00 0.00 85 1016.7
20260906114310 21 34 6.4 8.0 0.00 0.00 0.00 85 1016.7
20260906114143 21 46 6.4 6.4 0.00 0.00 0.00 85 1016.7
20260906113650 21 45 4.8 6.4 0.00 0.00 0.00 84 1016.7
20260906113247 21 360 1.6 4.8 0.00 0.00 0.00 84 1016.5
20260906113140 21 360 1.6 4.8 0.00 0.00 0.00 84 1016.5
20260906112651 21 16 3.2 4.8 0.00 0.00 0.00 83 1016.5
20260906112249 21 9 3.2 4.8 0.00 0.00 0.00 83 1016.5
20260906112140 21 355 1.6 3.2 0.00 0.00 0.00 83 1016.5
20260906111651 21 22 0.0 3.2 0.00 0.00 0.00 82 1016.5
20260906111308 21 5 1.6 3.2 0.00 0.00 0.00 82 1016.5
20260906111158 21 5 0.0 3.2 0.00 0.00 0.00 82 1016.5
20260906110647 21 117 0.0 3.2 0.00 0.00 0.00 82 1016.5
20260906110243 21 117 1.6 3.2 0.00 0.00 0.00 82 1016.5
20260906110141 21 117 1.6 3.2 0.00 0.00 0.00 82 1016.6
20260906105651 21 117 1.6 4.8 0.00 0.00 0.00 82 1016.7
20260906105248 21 13 1.6 8.0 0.00 0.00 0.00 82 1016.7
20260906105140 21 23 1.6 12.9 0.00 0.00 0.00 82 1016.7
20260906104710 21 355 4.8 14.5 0.00 0.00 0.00 82 1016.7
20260906104246 21 355 8.0 14.5 0.00 0.00 0.00 81 1016.7
20260906104158 21 355 8.0 14.5 0.00 0.00 0.00 81 1016.7
20260906103649 21 339 9.7 14.5 0.00 0.00 0.00 81 1016.7
20260906103305 21 355 6.4 9.7 0.00 0.00 0.00 80 1016.6
20260906103158 21 323 8.0 9.7 0.00 0.00 0.00 80 1016.6
20260906102646 21 223 1.6 8.0 0.00 0.00 0.00 80 1016.4
20260906102243 21 169 4.8 11.3 0.00 0.00 0.00 80 1016.2
20260906102156 21 153 4.8 12.9 0.00 0.00 0.00 79 1016.1
20260906101644 21 184 6.4 14.5 0.00 0.00 0.00 79 1016.0
20260906101241 21 159 8.0 14.5 0.00 0.00 0.00 80 1015.9
20260906101134 21 150 8.0 12.9 0.00 0.00 0.00 80 1015.9
20260906100644 21 162 8.0 14.5 0.00 0.00 0.00 79 1015.8
20260906100240 21 153 9.7 14.5 0.00 0.00 0.00 80 1015.9
20260906100153 21 146 9.7 14.5 0.00 0.00 0.00 80 1015.9
20260906095647 21 173 9.7 14.5 0.00 0.00 0.00 80 1015.9
20260906095238 21 147 9.7 14.5 0.00 0.00 0.00 81 1016.0
20260906095135 21 148 8.0 12.9 0.00 0.00 0.00 81 1016.0
20260906094644 21 147 9.7 12.9 0.00 0.00 0.00 83 1016.0
20260906094240 21 153 8.0 11.3 0.00 0.00 0.00 84 1016.1
20260906094153 21 143 8.0 14.5 0.00 0.00 0.00 84 1016.1
20260906093643 21 147 8.0 12.9 0.00 0.00 0.00 84 1016.0
20260906093240 21 155 6.4 12.9 0.00 0.00 0.00 85 1016.0
20260906093214 21 150 8.0 12.9 0.00 0.00 0.00 85 1016.0
20260906092642 21 146 6.4 11.3 0.00 0.00 0.00 85 1016.0
20260906092258 21 138 8.0 11.3 0.00 0.00 0.00 85 1016.0
20260906092149 21 146 8.0 11.3 0.00 0.00 0.00 85 1016.0
20260906091659 21 159 6.4 11.3 0.00 0.00 0.00 85 1015.9
20260906091234 21 161 8.0 9.7 0.00 0.00 0.00 85 1015.9
20260906091146 21 143 6.4 9.7 0.00 0.00 0.00 85 1015.9
20260906090636 21 167 6.4 8.0 0.00 0.00 0.00 84 1015.9
20260906090253 21 196 4.8 6.4 0.00 0.00 0.00 84 1015.8
20260906090146 21 200 4.8 6.4 0.00 0.00 0.00 84 1015.8
20260906085637 21 190 4.8 6.4 0.00 0.00 0.00 85 1015.7
20260906085311 21 224 4.8 4.8 0.00 0.00 0.00 84 1015.5
20260906085146 21 233 4.8 4.8 0.00 0.00 0.00 84 1015.5
20260906084637 21 217 3.2 6.4 0.00 0.00 0.00 84 1015.5
20260906084254 21 221 3.2 6.4 0.00 0.00 0.00 84 1015.4
20260906084146 21 221 3.2 6.4 0.00 0.00 0.00 84 1015.4
20260906083637 21 206 3.2 6.4 0.00 0.00 0.00 84 1015.5
20260906083253 21 230 3.2 6.4 0.00 0.00 0.00 84 1015.6
20260906083146 21 232 3.2 6.4 0.00 0.00 0.00 83 1015.6
20260906082636 21 219 4.8 6.4 0.00 0.00 0.00 83 1015.8
20260906082253 21 211 3.2 6.4 0.00 0.00 0.00 82 1015.7
20260906082146 22 205 3.2 6.4 0.00 0.00 0.00 82 1015.7
20260906081636 22 212 3.2 6.4 0.00 0.00 0.00 82 1015.8
20260906081253 22 207 0.0 6.4 0.00 0.00 0.00 81 1015.9
20260906081151 22 207 1.6 6.4 0.00 0.00 0.00 81 1016.0
20260906080641 22 134 3.2 6.4 0.00 0.00 0.00 80 1016.0
20260906080237 22 144 4.8 8.0 0.00 0.00 0.00 80 1016.0
20260906080150 22 139 3.2 8.0 0.00 0.00 0.00 80 1016.0
20260906075638 22 113 4.8 6.4 0.00 0.00 0.00 80 1015.9
20260906075254 22 147 3.2 6.4 0.00 0.00 0.00 80 1015.9
20260906075147 22 91 3.2 6.4 0.00 0.00 0.00 79 1015.9
20260906074638 22 87 3.2 6.4 0.00 0.00 0.00 79 1015.9
20260906074313 22 88 4.8 11.3 0.00 0.00 0.00 78 1015.9
20260906074145 22 99 3.2 11.3 0.00 0.00 0.00 78 1015.8
20260906073636 22 176 4.8 11.3 0.00 0.00 0.00 78 1015.8
20260906073252 22 146 6.4 11.3 0.00 0.00 0.00 78 1015.9
20260906073145 22 146 6.4 11.3 0.00 0.00 0.00 78 1015.9
20260906072655 22 162 6.4 11.3 0.00 0.00 0.00 78 1015.9
20260906072249 22 134 6.4 14.5 0.00 0.00 0.00 78 1015.9
20260906072146 22 185 6.4 14.5 0.00 0.00 0.00 78 1015.8
20260906071636 22 143 8.0 19.3 0.00 0.00 0.00 78 1015.7
20260906071252 22 142 14.5 19.3 0.00 0.00 0.00 77 1015.7
20260906071145 22 136 14.5 19.3 0.00 0.00 0.00 77 1015.8
20260906070635 22 142 12.9 19.3 0.00 0.00 0.00 77 1015.7
20260906070250 22 134 12.9 19.3 0.00 0.00 0.00 77 1015.8
20260906070143 22 216 11.3 19.3 0.00 0.00 0.00 77 1015.8
20260906065653 22 142 11.3 16.1 0.00 0.00 0.00 77 1015.6
20260906065250 22 153 8.0 14.5 0.00 0.00 0.00 77 1015.7
20260906065143 22 163 8.0 14.5 0.00 0.00 0.00 77 1015.6
20260906064653 22 150 9.7 16.1 0.00 0.00 0.00 76 1015.6
20260906064249 22 144 8.0 16.1 0.00 0.00 0.00 76 1015.4
20260906064142 22 161 9.7 16.1 0.00 0.00 0.00 76 1015.4
20260906063635 22 159 8.0 16.1 0.00 0.00 0.00 76 1015.4
20260906063248 22 140 9.7 16.1 0.00 0.00 0.00 76 1015.4
20260906063205 22 150 9.7 16.1 0.00 0.00 0.00 76 1015.4
20260906062653 22 157 11.3 16.1 0.00 0.00 0.00 76 1015.3
20260906062246 22 137 11.3 14.5 0.00 0.00 0.00 76 1015.4
20260906062143 22 142 9.7 14.5 0.00 0.00 0.00 76 1015.4
20260906061652 23 146 9.7 14.5 0.00 0.00 0.00 76 1015.3
20260906061249 22 178 9.7 12.9 0.00 0.00 0.00 75 1015.4
20260906061142 22 166 9.7 14.5 0.00 0.00 0.00 75 1015.4
20260906060650 22 163 11.3 14.5 0.00 0.00 0.00 76 1015.3
20260906060247 22 187 11.3 14.5 0.00 0.00 0.00 76 1015.3
20260906060159 22 159 11.3 16.1 0.00 0.00 0.00 76 1015.3
20260906055648 22 160 11.3 16.1 0.00 0.00 0.00 76 1015.3
20260906055244 22 154 12.9 16.1 0.00 0.00 0.00 76 1015.3
20260906055137 22 163 12.9 17.7 0.00 0.00 0.00 76 1015.2
20260906054708 22 163 14.5 19.3 0.00 0.00 0.00 76 1015.1
20260906054243 22 173 14.5 19.3 0.00 0.00 0.00 76 1015.1
20260906054136 22 153 14.5 19.3 0.00 0.00 0.00 76 1015.1
20260906053650 22 173 12.9 19.3 0.00 0.00 0.00 75 1015.1
20260906053242 22 178 11.3 17.7 0.00 0.00 0.00 75 1015.1
20260906053138 22 163 12.9 17.7 0.00 0.00 0.00 75 1015.1
20260906052708 22 159 11.3 19.3 0.00 0.00 0.00 75 1015.1
20260906052242 22 161 12.9 19.3 0.00 0.00 0.00 75 1015.0
20260906052135 22 146 12.9 17.7 0.00 0.00 0.00 75 1014.9
20260906051645 22 170 14.5 20.9 0.00 0.00 0.00 75 1014.9
20260906051241 23 163 12.9 20.9 0.00 0.00 0.00 75 1014.8
20260906051154 23 145 12.9 20.9 0.00 0.00 0.00 75 1014.8
20260906050644 23 131 12.9 17.7 0.00 0.00 0.00 75 1014.8
20260906050239 23 130 12.9 17.7 0.00 0.00 0.00 74 1014.8
20260906050150 23 167 12.9 19.3 0.00 0.00 0.00 74 1014.7
20260906045640 23 138 12.9 20.9 0.00 0.00 0.00 74 1014.8
20260906045238 23 152 12.9 20.9 0.00 0.00 0.00 74 1014.9
20260906045150 23 157 12.9 20.9 0.00 0.00 0.00 74 1014.9
20260906044643 23 163 11.3 20.9 0.00 0.00 0.00 73 1015.0
20260906044240 23 151 12.9 20.9 0.00 0.00 0.00 73 1014.9
20260906044150 23 139 14.5 20.9 0.00 0.00 0.00 73 1015.0
20260906043641 23 161 14.5 19.3 0.00 0.00 0.00 73 1015.0
20260906043316 23 164 14.5 19.3 0.00 0.00 0.00 73 1015.0
20260906043147 23 136 14.5 19.3 0.00 0.00 0.00 73 1015.1
20260906042636 23 172 12.9 22.5 0.00 0.00 0.00 73 1015.3
20260906042252 23 145 12.9 22.5 0.00 0.00 0.00 73 1015.3
20260906042144 23 150 12.9 22.5 0.00 0.00 0.00 72 1015.3
20260906041654 23 163 12.9 17.7 0.00 0.00 0.00 72 1015.3
20260906041251 24 147 12.9 17.7 0.00 0.00 0.00 72 1015.3
20260906041203 24 188 12.9 17.7 0.00 0.00 0.00 72 1015.4
20260906040648 24 164 11.3 17.7 0.00 0.00 0.00 71 1015.4
20260906040245 24 163 11.3 17.7 0.00 0.00 0.00 71 1015.4
20260906040138 24 159 11.3 22.5 0.00 0.00 0.00 71 1015.4
20260906035648 25 153 11.3 22.5 0.00 0.00 0.00 70 1015.4
20260906035306 25 138 12.9 19.3 0.00 0.00 0.00 70 1015.6
20260906035139 25 146 12.9 19.3 0.00 0.00 0.00 70 1015.6
20260906034649 25 153 12.9 22.5 0.00 0.00 0.00 70 1015.5
20260906034246 25 139 12.9 20.9 0.00 0.00 0.00 69 1015.5
20260906034139 25 160 12.9 20.9 0.00 0.00 0.00 69 1015.4
20260906033648 25 140 14.5 20.9 0.00 0.00 0.00 69 1015.4
20260906033245 25 147 14.5 24.1 0.00 0.00 0.00 68 1015.4
20260906033138 25 170 14.5 24.1 0.00 0.00 0.00 68 1015.4
20260906032647 25 161 14.5 24.1 0.00 0.00 0.00 68 1015.4
20260906032242 25 132 14.5 27.4 0.00 0.00 0.00 68 1015.3
20260906032155 25 163 14.5 27.4 0.00 0.00 0.00 68 1015.3
20260906031642 25 153 17.7 27.4 0.00 0.00 0.00 67 1015.3
20260906031239 25 151 17.7 27.4 0.00 0.00 0.00 67 1015.2
20260906031151 25 180 19.3 27.4 0.00 0.00 0.00 67 1015.1
20260906030641 25 173 19.3 27.4 0.00 0.00 0.00 67 1015.1
20260906030238 25 161 19.3 29.0 0.00 0.00 0.00 66 1015.1
20260906030211 26 130 19.3 29.0 0.00 0.00 0.00 66 1015.1
20260906025704 26 112 17.7 27.4 0.00 0.00 0.00 65 1015.0
20260906025237 26 151 20.9 30.6 0.00 0.00 0.00 65 1014.9
20260906025153 26 171 20.9 30.6 0.00 0.00 0.00 65 1014.8
20260906024643 26 120 20.9 32.2 0.00 0.00 0.00 64 1014.8
20260906024239 26 144 19.3 30.6 0.00 0.00 0.00 64 1014.8
20260906024152 26 101 19.3 30.6 0.00 0.00 0.00 64 1014.8
20260906023642 26 126 19.3 30.6 0.00 0.00 0.00 63 1014.9
20260906023238 26 169 17.7 29.0 0.00 0.00 0.00 63 1015.0
20260906023212 26 159 17.7 29.0 0.00 0.00 0.00 63 1014.9
20260906022640 26 121 16.1 25.7 0.00 0.00 0.00 63 1014.8
20260906022236 26 158 12.9 19.3 0.00 0.00 0.00 63 1014.9
20260906022147 26 148 11.3 19.3 0.00 0.00 0.00 63 1014.9
20260906021637 26 173 9.7 16.1 0.00 0.00 0.00 62 1014.8
20260906021254 26 100 11.3 16.1 0.00 0.00 0.00 61 1014.8
20260906021147 26 98 14.5 16.1 0.00 0.00 0.00 61 1014.8
20260906020641 26 155 11.3 12.9 0.00 0.00 0.00 60 1014.7
20260906020315 27 155 9.7 12.9 0.00 0.00 0.00 60 1014.6
20260906020150 27 146 9.7 12.9 0.00 0.00 0.00 60 1014.6
20260906015639 27 159 9.7 12.9 0.00 0.00 0.00 59 1014.7
20260906015237 27 172 8.0 12.9 0.00 0.00 0.00 58 1014.6
20260906015149 27 141 8.0 12.9 0.00 0.00 0.00 58 1014.6
20260906014639 27 153 8.0 14.5 0.00 0.00 0.00 58 1014.5
20260906014253 28 149 9.7 16.1 0.00 0.00 0.00 57 1014.3
20260906014146 28 153 9.7 16.1 0.00 0.00 0.00 57 1014.3
20260906013653 28 147 9.7 17.7 0.00 0.00 0.00 56 1014.3
20260906013250 28 140 11.3 19.3 0.00 0.00 0.00 55 1014.2
20260906013144 28 145 11.3 19.3 0.00 0.00 0.00 55 1014.1
20260906012654 28 156 11.3 19.3 0.00 0.00 0.00 54 1014.1
20260906012249 28 172 11.3 19.3 0.00 0.00 0.00 54 1014.0
20260906012146 28 200 11.3 19.3 0.00 0.00 0.00 54 1014.0
20260906011636 29 139 14.5 19.3 0.00 0.00 0.00 53 1014.0
20260906011252 29 183 12.9 19.3 0.00 0.00 0.00 53 1014.0
20260906011145 29 142 12.9 19.3 0.00 0.00 0.00 53 1013.9
20260906010653 30 157 16.1 27.4 0.00 0.00 0.00 53 1014.0
20260906010249 30 186 16.1 27.4 0.00 0.00 0.00 52 1013.9
20260906010203 30 167 16.1 27.4 0.00 0.00 0.00 52 1013.9
20260906005652 30 153 16.1 27.4 0.00 0.00 0.00 52 1013.8
20260906005247 30 184 17.7 29.0 0.00 0.00 0.00 51 1013.9
20260906005139 30 154 16.1 29.0 0.00 0.00 0.00 51 1013.8
20260906004648 30 148 17.7 27.4 0.00 0.00 0.00 51 1013.8
20260906004245 30 170 19.3 27.4 0.00 0.00 0.00 50 1013.7
20260906004137 31 155 19.3 27.4 0.00 0.00 0.00 50 1013.8
20260906003648 31 175 17.7 33.8 0.00 0.00 0.00 49 1013.7
20260906003305 31 146 17.7 33.8 0.00 0.00 0.00 48 1013.5
20260906003140 31 171 17.7 33.8 0.00 0.00 0.00 48 1013.5
20260906002649 31 153 19.3 33.8 0.00 0.00 0.00 47 1013.4
20260906002245 32 160 19.3 33.8 0.00 0.00 0.00 46 1013.5
20260906002138 32 188 20.9 33.8 0.00 0.00 0.00 45 1013.4
20260906001649 32 117 19.3 30.6 0.00 0.00 0.00 44 1013.4
20260906001244 32 166 19.3 33.8 0.00 0.00 0.00 45 1013.4
20260906001158 32 141 20.9 33.8 0.00 0.00 0.00 45 1013.4
20260906000707 32 174 20.9 33.8 0.00 0.00 0.00 46 1013.4
20260906000243 33 175 19.3 30.6 0.00 0.00 0.00 45 1013.4
20260906000154 33 125 17.7 30.6 0.00 0.00 0.00 45 1013.4
20260905235644 33 100 20.9 38.6 0.00 0.00 0.00 44 1013.4
20260905235300 33 167 22.5 38.6 0.00 0.00 0.00 45 1013.4
20260905235211 33 159 24.1 38.6 0.00 0.00 0.00 45 1013.4
20260905234641 33 146 17.7 35.4 0.00 0.00 0.00 45 1013.5
20260905234238 33 157 22.5 35.4 0.00 0.00 0.00 45 1013.4
20260905234151 33 183 22.5 35.4 0.00 0.00 0.00 45 1013.4
20260905233641 33 178 20.9 33.8 0.00 0.00 0.00 44 1013.5
20260905233236 33 168 17.7 33.8 0.00 0.00 0.00 45 1013.6
20260905233209 33 163 16.1 38.6 0.00 0.00 0.00 46 1013.6
20260905232641 33 162 17.7 38.6 0.00 0.00 0.00 45 1013.6
20260905232253 33 130 24.1 35.4 0.00 0.00 0.00 44 1013.6
20260905232151 33 146 22.5 33.8 0.00 0.00 0.00 44 1013.5
20260905231640 33 67 20.9 35.4 0.00 0.00 0.00 44 1013.6
20260905231236 33 162 20.9 33.8 0.00 0.00 0.00 45 1013.6
20260905231149 33 194 19.3 32.2 0.00 0.00 0.00 45 1013.5
20260905230639 34 178 19.3 35.4 0.00 0.00 0.00 45 1013.4
20260905230255 34 158 20.9 35.4 0.00 0.00 0.00 44 1013.4
20260905230148 34 155 24.1 35.4 0.00 0.00 0.00 43 1013.4
20260905225638 34 153 22.5 32.2 0.00 0.00 0.00 46 1013.3
20260905225315 34 160 16.1 30.6 0.00 0.00 0.00 44 1013.3
20260905225207 34 150 17.7 30.6 0.00 0.00 0.00 43 1013.3
20260905224636 34 140 22.5 35.4 0.00 0.00 0.00 43 1013.3
20260905224252 34 169 22.5 41.8 0.00 0.00 0.00 43 1013.3
20260905224143 34 167 22.5 41.8 0.00 0.00 0.00 42 1013.3
20260905223709 35 136 27.4 41.8 0.00 0.00 0.00 43 1013.3
20260905223304 35 148 24.1 33.8 0.00 0.00 0.00 44 1013.3
20260905223137 35 147 22.5 33.8 0.00 0.00 0.00 44 1013.3
20260905222646 35 149 22.5 33.8 0.00 0.00 0.00 42 1013.4
20260905222305 35 141 24.1 33.8 0.00 0.00 0.00 44 1013.4
20260905222138 35 142 22.5 33.8 0.00 0.00 0.00 44 1013.4
20260905221708 34 163 20.9 33.8 0.00 0.00 0.00 43 1013.3
20260905221240 35 173 22.5 33.8 0.00 0.00 0.00 41 1013.3
20260905221157 35 159 22.5 32.2 0.00 0.00 0.00 41 1013.4
20260905220646 35 86 17.7 32.2 0.00 0.00 0.00 42 1013.4
20260905220239 35 151 20.9 33.8 0.00 0.00 0.00 43 1013.5
20260905220152 35 147 19.3 33.8 0.00 0.00 0.00 41 1013.4
20260905215642 35 177 22.5 37.0 0.00 0.00 0.00 43 1013.5
20260905215259 34 146 22.5 37.0 0.00 0.00 0.00 44 1013.5
20260905215151 34 123 19.3 37.0 0.00 0.00 0.00 44 1013.4
20260905214700 34 154 24.1 38.6 0.00 0.00 0.00 45 1013.4
20260905214236 34 162 25.7 38.6 0.00 0.00 0.00 44 1013.6
20260905214147 34 139 25.7 38.6 0.00 0.00 0.00 45 1013.6
20260905213637 34 142 25.7 37.0 0.00 0.00 0.00 46 1013.6
20260905213254 34 147 22.5 38.6 0.00 0.00 0.00 46 1013.5
20260905213147 34 294 24.1 38.6 0.00 0.00 0.00 47 1013.6
20260905212655 34 81 22.5 38.6 0.00 0.00 0.00 47 1013.7
20260905212251 33 141 27.4 38.6 0.00 0.00 0.00 46 1013.8
20260905212204 33 117 24.1 37.0 0.00 0.00 0.00 46 1013.8
20260905211638 33 99 20.9 37.0 0.00 0.00 0.00 47 1013.8
20260905211251 33 202 20.9 41.8 0.00 0.00 0.00 47 1014.0
20260905211148 33 212 19.3 41.8 0.00 0.00 0.00 46 1014.0
20260905210638 33 281 16.1 41.8 0.00 0.00 0.00 47 1014.1
20260905210254 33 145 24.1 38.6 0.00 0.00 0.00 46 1014.2
20260905210146 33 251 20.9 37.0 0.00 0.00 0.00 48 1014.2
20260905205636 33 142 22.5 35.4 0.00 0.00 0.00 49 1014.3
20260905205253 33 295 17.7 38.6 0.00 0.00 0.00 50 1014.3
20260905205146 33 98 17.7 38.6 0.00 0.00 0.00 50 1014.4